Simultaneous Nadir Overpasses (SNOs) Predictions

Prediction of SNOs between NOAA-20 and METOP-C Satellite Orbit:

Table of predicted SNOs for the next 14.0 days since TLE Epoch: 1/12/2021
Index Date (NOAA-20) Time (NOAA-20) Lat,Lon (NOAA-20) SZA (NOAA-20 ) Date (METOP-C) Time (METOP-C) Lat,Lon (METOP-C) SZA (METOP-C ) Distance(km) Time Diff (sec)
1 01/26/2021 05:48:57 73.23, 83.47 92.16 01/26/2021 05:50:05 73.17, 85.72 91.96 72.64 68
2 01/26/2021 06:39:40 -73.17,-109.09 87.92 01/26/2021 06:40:49 -73.11,-107.10 88.11 64.33 69
3 01/26/2021 07:30:21 72.93, 58.74 91.81 01/26/2021 07:31:32 72.90, 59.79 91.70 34.60 71
4 01/26/2021 08:21:04 -72.88,-133.82 88.27 01/26/2021 08:22:16 -72.83,-133.02 88.37 26.53 72
5 01/26/2021 09:11:46 72.69, 33.89 91.52 01/26/2021 09:12:58 72.68, 33.99 91.49 3.48 72
6 01/26/2021 10:02:30 -72.68,-158.78 88.50 01/26/2021 10:03:41 -72.66,-158.72 88.54 2.81 71
7 01/26/2021 10:53:15 72.64, 8.61 91.45 01/26/2021 10:54:20 72.66, 8.61 91.45 1.86 65
8 01/26/2021 11:43:59 -72.63, 175.93 88.57 01/26/2021 11:45:03 -72.64, 175.90 88.58 1.56 64
9 01/26/2021 12:34:45 72.64, -16.78 91.44 01/26/2021 12:35:42 72.64, -16.78 91.42 1.00 57



Historial Predications of SNOs between NOAA-20 and METOP-C
